period_start,C,m1,H,J0,J1,J2,J3,J4,J5,JA,JB,JC,JD,JJ,JK,JN,#
2014-04-15 00:00:46,0.05,2.65,0.00,17.95,24.84,26.76,6.13,32.46,1003.57,2046.09,2526.95,2643.94,2827.70,349.66,325.05,22.02,0000 0000 0000 0000 000000
2014-04-15 00:01:46,0.12,2.65,0.00,17.97,24.84,26.85,6.22,32.54,1003.67,2046.08,2526.77,2643.72,2827.30,350.95,326.26,22.03,0000 0000 0000 0000 000000
2014-04-15 00:02:47,0.08,2.65,0.00,17.97,24.83,26.86,5.99,32.71,1003.79,2046.03,2526.78,2643.63,2827.11,350.21,325.89,22.03,0000 0000 0000 0000 000000
2014-04-15 00:03:47,0.08,2.65,0.00,17.98,24.83,26.85,6.06,32.50,1003.90,2046.04,2526.39,2643.27,2827.04,349.86,325.30,22.04,0000 0000 0000 0000 000000
2014-04-15 00:04:47,0.17,2.65,0.00,17.98,24.82,26.88,6.21,32.50,1003.91,2046.06,2526.17,2643.12,2827.01,350.74,326.13,22.04,0000 0000 0000 0000 000000
2014-04-15 00:05:48,0.10,2.65,0.00,17.98,24.82,26.88,6.03,32.42,1003.92,2046.04,2526.06,2643.04,2827.00,350.04,325.15,22.05,0000 0000 0000 0000 000000
2014-04-15 00:06:48,0.03,2.65,0.00,17.97,24.82,26.96,6.06,32.42,1003.92,2046.04,2526.01,2643.01,2826.99,349.54,324.79,22.06,0000 0000 0000 0000 000000
2014-04-15 00:07:48,0.01,2.65,0.00,17.97,24.82,26.89,6.01,32.13,1003.93,2046.07,2525.87,2643.00,2826.94,349.45,325.20,22.06,0000 0000 0000 0000 000000
2014-04-15 00:08:48,0.08,2.65,0.00,17.96,24.82,26.91,6.00,32.21,1003.92,2046.06,2525.59,2643.00,2826.73,349.67,325.16,22.07,0000 0000 0000 0000 000000
2014-04-15 00:09:49,0.05,2.65,0.00,17.94,24.82,26.93,6.14,32.33,1003.92,2046.05,2525.41,2642.99,2826.52,350.11,325.58,22.07,0000 0000 0000 0000 000000
2014-04-15 00:10:49,0.09,2.65,0.00,17.94,24.82,27.00,6.09,32.38,1003.92,2046.05,2525.19,2642.97,2826.31,349.86,325.05,22.08,0000 0000 0000 0000 000000
2014-04-15 00:11:49,0.11,2.65,0.00,17.92,24.82,26.92,6.20,32.46,1003.92,2046.07,2525.06,2642.86,2826.12,349.83,325.09,22.08,0000 0000 0000 0000 000000
2014-04-15 00:12:49,0.10,2.66,0.00,17.90,24.82,26.87,6.21,32.50,1003.92,2046.07,2525.01,2642.62,2826.04,351.29,326.28,22.09,0000 0000 0000 0000 000000
2014-04-15 00:13:50,0.09,2.66,0.00,17.91,24.82,26.83,6.15,32.42,1003.92,2046.05,2524.82,2642.30,2826.01,349.26,324.83,22.10,0000 0000 0000 0000 000000
2014-04-15 00:14:50,0.13,2.66,0.00,17.93,24.82,26.84,6.11,32.58,1003.92,2046.07,2524.62,2642.13,2826.00,349.74,325.10,22.10,0000 0000 0000 0000 000000
2014-04-15 00:15:50,0.11,2.66,0.00,17.95,24.82,26.92,6.12,32.54,1003.92,2046.08,2524.57,2642.05,2825.99,350.68,326.11,22.11,0000 0000 0000 0000 000000
2014-04-15 00:16:50,0.02,2.66,0.00,17.95,24.82,26.87,6.00,32.46,1003.92,2046.07,2524.41,2642.01,2825.93,349.20,324.66,22.11,0000 0000 0000 0000 000000
2014-04-15 00:17:50,0.06,2.66,0.00,17.96,24.82,26.91,6.12,32.67,1003.92,2046.08,2524.17,2642.00,2825.76,350.77,325.63,22.12,0000 0000 0000 0000 000000
2014-04-15 00:18:51,0.08,2.66,0.00,17.97,24.82,26.88,6.09,32.50,1003.92,2046.11,2524.05,2642.00,2825.48,349.56,325.40,22.13,0000 0000 0000 0000 000000
2014-04-15 00:19:51,0.11,2.66,0.00,17.95,24.82,26.91,6.22,32.63,1003.92,2046.16,2524.00,2641.97,2825.25,349.80,324.85,22.13,0000 0000 0000 0000 000000
2014-04-15 00:20:51,0.08,2.66,0.00,17.95,24.82,26.91,6.12,32.88,1003.92,2046.18,2523.95,2641.97,2825.10,350.54,325.97,22.14,0000 0000 0000 0000 000000
2014-04-15 00:21:51,0.06,2.66,0.00,17.95,24.82,26.94,6.15,32.42,1003.92,2046.18,2523.94,2641.94,2825.04,349.59,325.09,22.14,0000 0000 0000 0000 000000
2014-04-15 00:22:52,0.01,2.66,0.00,17.94,24.82,26.98,6.07,32.25,1003.92,2046.13,2523.65,2641.67,2825.01,349.36,324.61,22.15,0000 0000 0000 0000 000000
2014-04-15 00:23:52,0.16,2.66,0.00,17.94,24.82,26.96,6.07,32.38,1003.92,2046.19,2523.39,2641.40,2825.00,349.42,324.94,22.16,0000 0000 0000 0000 000000
2014-04-15 00:24:52,0.13,2.66,0.00,17.94,24.82,26.95,6.25,32.42,1003.92,2046.29,2523.34,2641.24,2824.99,350.55,326.00,22.16,0000 0000 0000 0000 000000
2014-04-15 00:25:53,0.14,2.66,0.00,17.92,24.82,26.90,6.06,32.17,1003.92,2046.25,2523.18,2641.08,2824.98,349.65,325.18,22.17,0000 0000 0000 0000 000000
2014-04-15 00:26:53,0.06,2.66,0.00,17.90,24.82,26.84,6.05,32.42,1003.93,2046.24,2523.07,2641.03,2824.82,349.63,324.94,22.17,0000 0000 0000 0000 000000
2014-04-15 00:27:53,0.04,2.66,0.00,17.89,24.82,26.81,6.17,32.21,1003.93,2046.28,2522.99,2641.01,2824.58,350.38,325.67,22.18,0000 0000 0000 0000 000000
2014-04-15 00:28:53,0.12,2.66,0.00,17.91,24.82,26.78,6.08,32.50,1003.94,2046.28,2522.95,2641.00,2824.26,350.39,326.18,22.18,0000 0000 0000 0000 000000
2014-04-15 00:29:54,0.04,2.66,0.00,17.93,24.82,26.88,6.08,32.79,1003.98,2046.20,2522.70,2641.00,2824.11,349.28,325.09,22.19,0000 0000 0000 0000 000000
2014-04-15 00:30:54,-0.01,2.66,0.00,17.94,24.82,26.95,6.17,32.79,1004.01,2046.19,2522.62,2640.97,2824.04,351.35,326.94,22.20,0000 0000 0000 0000 000000
2014-04-15 00:31:54,0.11,2.66,0.00,17.95,24.81,26.92,5.91,32.96,1004.13,2046.21,2522.30,2640.94,2824.01,349.00,324.99,22.20,0000 0000 0000 0000 000000
2014-04-15 00:32:54,0.02,2.66,0.00,17.96,24.81,26.94,6.10,32.83,1004.25,2046.13,2522.14,2640.79,2823.99,350.38,325.92,22.21,0000 0000 0000 0000 000000
2014-04-15 00:33:55,0.02,2.66,0.00,17.96,24.81,27.03,6.10,32.54,1004.38,2046.15,2522.05,2640.47,2823.99,351.11,326.23,22.21,0000 0000 0000 0000 000000
2014-04-15 00:34:55,0.14,2.67,0.00,17.94,24.80,27.01,6.24,32.50,1004.40,2046.11,2522.02,2640.26,2823.97,351.00,326.46,22.22,0000 0000 0000 0000 000000
2014-04-15 00:35:55,0.04,2.67,0.00,17.94,24.80,27.04,6.04,32.63,1004.41,2046.24,2522.01,2640.15,2823.92,349.48,324.87,22.23,0000 0000 0000 0000 000000
2014-04-15 00:36:56,0.17,2.67,0.00,17.94,24.80,27.07,6.26,32.88,1004.39,2046.38,2522.00,2640.08,2823.70,350.79,326.93,22.23,0000 0000 0000 0000 000000
2014-04-15 00:37:56,0.18,2.67,0.00,17.94,24.80,27.08,6.17,32.71,1004.39,2046.46,2521.98,2640.06,2823.46,349.63,325.64,22.24,0000 0000 0000 0000 000000
2014-04-15 00:38:56,0.16,2.67,0.00,17.94,24.80,27.18,6.02,32.71,1004.40,2046.44,2521.90,2640.03,2823.22,348.82,324.54,22.24,0000 0000 0000 0000 000000
2014-04-15 00:39:56,0.01,2.67,0.00,17.93,24.80,27.23,6.17,32.54,1004.41,2046.27,2521.65,2640.01,2823.09,349.83,325.49,22.25,0000 0000 0000 0000 000000
2014-04-15 00:40:56,-0.05,2.67,0.00,17.91,24.80,27.19,6.16,32.54,1004.40,2046.24,2521.35,2640.00,2823.03,350.03,325.69,22.25,0000 0000 0000 0000 000000
2014-04-15 00:41:57,0.03,2.67,0.00,17.90,24.80,27.07,6.20,32.67,1004.40,2046.28,2521.21,2639.99,2823.01,350.25,325.92,22.26,0000 0000 0000 0000 000000
2014-04-15 00:42:57,0.02,2.67,0.00,17.90,24.80,27.05,6.24,32.71,1004.40,2046.15,2521.09,2639.98,2822.98,351.03,326.60,22.27,0000 0000 0000 0000 000000
2014-04-15 00:43:57,-0.06,2.67,0.00,17.92,24.80,27.02,6.16,32.54,1004.40,2046.08,2521.02,2639.76,2822.94,350.52,326.37,22.27,0000 0000 0000 0000 000000
2014-04-15 00:44:58,0.06,2.67,0.00,17.94,24.80,27.00,6.04,32.42,1004.40,2046.07,2520.98,2639.45,2822.85,350.18,326.02,22.28,0000 0000 0000 0000 000000
2014-04-15 00:45:58,0.08,2.67,0.00,17.96,24.80,27.06,6.03,32.58,1004.41,2046.12,2520.84,2639.29,2822.70,349.17,325.01,22.28,0000 0000 0000 0000 000000
2014-04-15 00:46:58,0.15,2.67,0.00,17.96,24.80,27.13,5.99,32.46,1004.40,2046.16,2520.65,2639.13,2822.39,349.98,325.34,22.29,0000 0000 0000 0000 000000
2014-04-15 00:47:58,0.20,2.67,0.00,17.95,24.80,27.16,6.09,32.42,1004.41,2046.13,2520.29,2639.08,2822.14,350.85,326.22,22.30,0000 0000 0000 0000 000000
2014-04-15 00:48:59,0.07,2.67,0.00,17.94,24.80,27.14,6.08,32.46,1004.41,2046.19,2520.16,2639.04,2822.08,350.00,325.63,22.30,0000 0000 0000 0000 000000
2014-04-15 00:49:59,0.14,2.67,0.00,17.95,24.80,27.17,5.97,32.17,1004.41,2046.21,2520.06,2639.01,2822.04,350.24,325.84,22.31,0000 0000 0000 0000 000000
2014-04-15 00:50:59,0.01,2.67,0.00,17.94,24.80,27.28,6.02,32.63,1004.41,2046.13,2520.00,2638.99,2822.01,349.26,324.95,22.31,0000 0000 0000 0000 000000
2014-04-15 00:51:59,-0.03,2.67,0.00,17.94,24.80,27.28,5.92,32.58,1004.40,2046.20,2519.97,2638.97,2822.00,349.60,325.26,22.32,0000 0000 0000 0000 000000
2014-04-15 00:52:59,0.04,2.67,0.00,17.94,24.80,27.28,6.21,32.50,1004.38,2046.14,2519.93,2638.95,2821.97,349.92,325.55,22.33,0000 0000 0000 0000 000000
2014-04-15 00:53:59,-0.00,2.67,0.00,17.93,24.80,27.34,5.98,32.79,1004.37,2046.26,2519.81,2638.90,2821.92,348.04,323.60,22.33,0000 0000 0000 0000 000000
2014-04-15 00:55:00,0.17,2.67,0.00,17.93,24.80,27.27,5.98,33.00,1004.39,2046.29,2519.46,2638.73,2821.65,349.39,325.08,22.34,0000 0000 0000 0000 000000
2014-04-15 00:56:00,0.15,2.67,0.00,17.93,24.80,27.28,5.97,32.83,1004.39,2046.15,2519.30,2638.42,2821.33,349.52,325.05,22.34,0000 0000 0000 0000 000000
2014-04-15 00:57:00,0.11,2.68,0.00,17.91,24.80,27.17,6.18,32.67,1004.39,2046.12,2519.14,2638.21,2821.16,349.76,324.97,22.35,0000 0000 0000 0000 000000
2014-04-15 00:58:00,0.08,2.68,0.00,17.90,24.80,27.14,6.09,32.67,1004.35,2046.16,2519.07,2638.08,2821.07,350.42,325.89,22.35,0000 0000 0000 0000 000000
2014-04-15 00:59:01,0.08,2.68,0.00,17.89,24.80,27.08,5.97,32.79,1004.29,2046.21,2519.03,2638.03,2821.03,349.43,325.21,22.36,0000 0000 0000 0000 000000
2014-04-15 01:00:01,0.09,2.68,0.00,17.90,24.80,27.08,6.01,32.75,1004.24,2046.15,2519.01,2638.01,2821.00,348.75,324.43,22.37,0000 0000 0000 0000 000000
2014-04-15 01:01:01,-0.04,2.68,0.00,17.92,24.80,27.10,6.12,33.04,1004.20,2046.16,2518.99,2638.00,2821.00,348.51,324.16,22.37,0000 0000 0000 0000 000000
2014-04-15 01:02:01,0.01,2.68,0.00,17.92,24.80,27.03,6.08,32.92,1004.15,2046.12,2518.98,2638.00,2820.99,350.51,326.05,22.38,0000 0000 0000 0000 000000
2014-04-15 01:03:01,-0.04,2.68,0.00,17.92,24.80,27.08,6.13,33.08,1004.05,2046.13,2518.94,2638.00,2820.98,349.53,325.11,22.38,0000 0000 0000 0000 000000
2014-04-15 01:04:02,0.03,2.68,0.00,17.91,24.80,27.08,6.21,32.92,1004.05,2046.22,2518.67,2637.99,2820.91,349.96,325.52,22.39,0000 0000 0000 0000 000000
2014-04-15 01:05:02,0.18,2.68,0.00,17.92,24.80,27.14,6.10,33.04,1004.04,2046.18,2518.26,2637.89,2820.56,350.41,325.93,22.40,0000 0000 0000 0000 000000
2014-04-15 01:06:02,0.09,2.68,0.00,17.91,24.79,27.22,6.02,32.83,1003.96,2046.18,2518.10,2637.76,2820.35,349.46,325.02,22.40,0000 0000 0000 0000 000000
2014-04-15 01:07:03,0.12,2.68,0.00,17.92,24.80,27.25,6.26,33.04,1003.98,2046.14,2518.05,2637.62,2820.16,350.39,325.89,22.41,0000 0000 0000 0000 000000
2014-04-15 01:08:03,0.03,2.68,0.00,17.94,24.79,27.18,6.24,33.08,1004.06,2046.17,2518.01,2637.43,2820.05,350.80,326.43,22.41,0000 0000 0000 0000 000000
2014-04-15 01:09:03,0.14,2.68,0.00,17.94,24.79,27.13,6.13,32.88,1004.17,2046.25,2517.98,2637.22,2820.02,350.04,325.67,22.42,0000 0000 0000 0000 000000
2014-04-15 01:10:03,0.11,2.68,0.00,17.94,24.79,27.15,6.07,33.08,1004.22,2046.39,2517.96,2637.13,2820.00,349.75,325.18,22.42,0000 0000 0000 0000 000000
2014-04-15 01:11:03,0.16,2.68,0.00,17.92,24.79,27.12,6.02,32.92,1004.30,2046.38,2517.84,2637.05,2820.00,349.81,325.45,22.43,0000 0000 0000 0000 000000
2014-04-15 01:12:03,0.00,2.68,0.00,17.92,24.79,27.12,6.14,32.83,1004.39,2046.39,2517.40,2637.02,2819.99,350.37,325.79,22.44,0000 0000 0000 0000 000000
2014-04-15 01:13:04,0.15,2.68,0.00,17.92,24.79,27.11,6.01,32.96,1004.40,2046.52,2517.21,2637.00,2819.97,349.66,325.35,22.44,0000 0000 0000 0000 000000
2014-04-15 01:14:04,0.21,2.68,0.00,17.90,24.79,27.20,6.05,32.83,1004.40,2046.69,2517.11,2637.00,2819.94,349.05,324.80,22.45,0000 0000 0000 0000 000000
2014-04-15 01:15:04,0.14,2.68,0.00,17.92,24.79,27.23,6.13,32.71,1004.41,2046.59,2517.04,2636.99,2819.57,349.84,325.37,22.45,0000 0000 0000 0000 000000
2014-04-15 01:16:04,-0.03,2.68,0.00,17.93,24.79,27.22,6.04,32.92,1004.41,2046.51,2516.99,2636.96,2819.27,350.74,326.33,22.46,0000 0000 0000 0000 000000
2014-04-15 01:17:04,0.00,2.68,0.00,17.94,24.79,27.25,6.13,33.17,1004.41,2046.53,2516.99,2636.94,2819.13,349.97,325.49,22.47,0000 0000 0000 0000 000000
2014-04-15 01:18:04,0.08,2.69,0.00,17.95,24.79,27.39,6.11,32.71,1004.41,2046.46,2516.93,2636.80,2819.05,350.23,326.05,22.47,0000 0000 0000 0000 000000
2014-04-15 01:19:04,-0.03,2.68,0.00,17.93,24.78,27.37,6.13,32.58,1004.41,2046.45,2516.47,2636.39,2819.02,350.30,326.12,22.48,0000 0000 0000 0000 000000
2014-04-15 01:20:05,0.23,2.69,0.00,17.91,24.79,27.34,6.13,32.71,1004.41,2046.36,2516.29,2636.17,2819.00,349.44,325.31,22.48,0000 0000 0000 0000 000000
2014-04-15 01:21:05,-0.05,2.69,0.00,17.91,24.78,27.33,6.06,32.67,1004.43,2046.32,2516.12,2636.07,2819.00,348.77,324.78,22.49,0000 0000 0000 0000 000000
2014-04-15 01:22:05,0.12,2.69,0.00,17.90,24.78,27.27,6.08,33.00,1004.41,2046.58,2516.06,2636.03,2819.00,348.66,324.44,22.49,0000 0000 0000 0000 000000
2014-04-15 01:23:05,0.26,2.69,0.00,17.90,24.78,27.22,6.04,32.63,1004.45,2046.45,2516.00,2636.01,2818.86,349.69,325.51,22.50,0000 0000 0000 0000 000000
2014-04-15 01:24:05,-0.14,2.69,0.00,17.87,24.78,27.26,6.12,32.83,1004.45,2046.45,2515.95,2636.00,2818.60,349.19,324.97,22.51,0000 0000 0000 0000 000000
2014-04-15 01:25:05,0.07,2.69,0.00,17.86,24.78,27.23,6.08,32.54,1004.55,2046.55,2515.84,2636.00,2818.32,350.18,325.74,22.51,0000 0000 0000 0000 000000
2014-04-15 01:26:06,0.16,2.69,0.00,17.86,24.77,27.12,6.00,32.83,1004.53,2046.53,2515.49,2635.98,2818.17,349.03,325.21,22.52,0000 0000 0000 0000 000000
2014-04-15 01:27:06,0.04,2.69,0.00,17.87,24.77,27.23,6.19,32.46,1004.60,2046.61,2515.22,2635.94,2818.08,351.08,326.53,22.52,0000 0000 0000 0000 000000
2014-04-15 01:28:06,0.23,2.69,0.00,17.89,24.77,27.31,6.02,32.79,1004.71,2046.66,2515.08,2635.66,2818.03,349.20,324.90,22.53,0000 0000 0000 0000 000000
2014-04-15 01:29:06,0.14,2.69,0.00,17.90,24.77,27.27,6.08,32.58,1004.80,2046.64,2515.03,2635.43,2818.01,350.27,326.06,22.54,0000 0000 0000 0000 000000
2014-04-15 01:30:06,0.04,2.69,0.00,17.91,24.77,27.18,6.02,32.54,1004.89,2046.61,2514.91,2635.19,2817.94,350.67,326.45,22.54,0000 0000 0000 0000 000000
2014-04-15 01:31:07,0.09,2.69,0.00,17.93,24.77,27.19,6.14,32.79,1004.90,2046.50,2514.84,2635.10,2817.90,349.80,325.63,22.55,0000 0000 0000 0000 000000
2014-04-15 01:32:07,-0.08,2.69,0.00,17.92,24.77,27.10,6.01,32.63,1004.90,2046.35,2514.67,2635.03,2817.74,349.32,325.19,22.55,0000 0000 0000 0000 000000
2014-04-15 01:33:07,-0.02,2.69,0.00,17.91,24.77,27.18,6.13,32.58,1004.92,2046.29,2514.40,2635.00,2817.37,349.59,325.83,22.56,0000 0000 0000 0000 000000
2014-04-15 01:34:07,0.06,2.69,0.00,17.91,24.77,27.24,6.03,32.42,1004.95,2046.43,2514.18,2635.00,2817.19,349.85,325.71,22.57,0000 0000 0000 0000 000000
2014-04-15 01:35:08,0.23,2.69,0.00,17.92,24.77,27.24,6.28,32.42,1005.06,2046.67,2514.07,2634.99,2817.09,350.82,326.64,22.57,0000 0000 0000 0000 000000
2014-04-15 01:36:08,0.28,2.69,0.00,17.90,24.77,27.29,6.12,32.38,1005.23,2046.72,2514.03,2634.98,2817.03,350.95,326.85,22.58,0000 0000 0000 0000 000000
2014-04-15 01:37:08,0.01,2.69,0.00,17.90,24.77,27.29,6.01,32.33,1005.34,2046.69,2513.97,2634.90,2817.01,350.58,326.07,22.58,0000 0000 0000 0000 000000
2014-04-15 01:38:08,0.03,2.70,0.00,17.89,24.77,27.22,6.02,32.17,1005.37,2046.65,2513.63,2634.57,2816.99,350.08,326.35,22.59,0000 0000 0000 0000 000000
2014-04-15 01:39:09,0.14,2.70,0.00,17.86,24.77,27.15,6.09,32.13,1005.38,2046.63,2513.45,2634.31,2816.97,350.17,326.34,22.59,0000 0000 0000 0000 000000
2014-04-15 01:40:09,0.09,2.70,0.00,17.84,24.77,27.16,6.13,32.13,1005.39,2046.58,2513.30,2634.15,2816.95,350.56,326.58,22.60,0000 0000 0000 0000 000000
2014-04-15 01:41:09,0.00,2.70,0.00,17.86,24.77,27.14,6.18,32.25,1005.39,2046.66,2513.15,2634.05,2816.81,350.66,326.66,22.61,0000 0000 0000 0000 000000
2014-04-15 01:42:09,0.21,2.70,0.00,17.87,24.77,27.15,6.10,32.08,1005.39,2046.74,2513.05,2634.02,2816.51,349.99,325.69,22.61,0000 0000 0000 0000 000000
2014-04-15 01:43:10,0.12,2.70,0.00,17.87,24.77,27.20,6.25,32.13,1005.39,2046.81,2513.01,2634.00,2816.23,350.91,327.26,22.62,0000 0000 0000 0000 000000
2014-04-15 01:44:10,0.14,2.70,0.00,17.88,24.77,27.30,6.03,32.46,1005.39,2046.82,2513.00,2634.00,2816.09,348.78,324.89,22.62,0000 0000 0000 0000 000000
2014-04-15 01:45:10,0.02,2.70,0.00,17.90,24.77,27.33,6.10,32.38,1005.39,2046.84,2513.00,2633.99,2816.03,350.66,326.97,22.63,0000 0000 0000 0000 000000
2014-04-15 01:46:10,0.02,2.70,0.00,17.90,24.77,27.32,6.12,32.21,1005.39,2046.85,2512.81,2633.98,2816.01,349.94,325.78,22.64,0000 0000 0000 0000 000000
2014-04-15 01:47:10,0.03,2.70,0.00,17.92,24.77,27.29,6.27,32.42,1005.39,2046.79,2512.45,2633.98,2816.00,350.19,326.07,22.64,0000 0000 0000 0000 000000
2014-04-15 01:48:11,0.03,2.70,0.00,17.92,24.77,27.24,6.17,32.21,1005.39,2046.83,2512.31,2633.89,2816.00,350.14,325.95,22.65,0000 0000 0000 0000 000000
2014-04-15 01:49:11,0.09,2.70,0.00,17.92,24.77,27.24,6.10,32.29,1005.39,2046.81,2512.29,2633.77,2816.00,349.60,325.89,22.65,0000 0000 0000 0000 000000
2014-04-15 01:50:11,0.02,2.70,0.00,17.92,24.77,27.31,5.88,32.42,1005.39,2046.80,2512.12,2633.41,2815.99,348.82,324.89,22.66,0000 0000 0000 0000 000000
2014-04-15 01:51:11,0.12,2.70,0.00,17.90,24.77,27.31,6.23,32.29,1005.39,2046.75,2512.04,2633.18,2815.90,351.05,326.98,22.66,0000 0000 0000 0000 000000
2014-04-15 01:52:12,0.07,2.70,0.00,17.90,24.77,27.28,6.15,32.21,1005.39,2046.71,2512.01,2633.07,2815.54,350.36,326.34,22.67,0000 0000 0000 0000 000000
2014-04-15 01:53:12,0.05,2.70,0.00,17.89,24.77,27.32,6.05,32.42,1005.39,2046.59,2511.89,2633.03,2815.28,350.02,326.02,22.68,0000 0000 0000 0000 000000
2014-04-15 01:54:12,0.00,2.70,0.00,17.89,24.77,27.28,6.10,32.25,1005.39,2046.71,2511.70,2633.01,2815.12,350.08,326.08,22.68,0000 0000 0000 0000 000000
2014-04-15 01:55:12,0.20,2.70,0.00,17.89,24.77,27.20,6.16,32.67,1005.39,2046.78,2511.49,2633.00,2815.05,349.58,325.62,22.69,0000 0000 0000 0000 000000
2014-04-15 01:56:13,0.07,2.70,0.00,17.88,24.77,27.15,6.04,32.38,1005.39,2046.75,2511.32,2632.99,2815.02,349.79,325.83,22.69,0000 0000 0000 0000 000000
2014-04-15 01:57:13,0.06,2.70,0.00,17.86,24.77,27.07,6.13,32.50,1005.38,2046.73,2511.13,2632.98,2815.00,350.27,326.44,22.70,0000 0000 0000 0000 000000
2014-04-15 01:58:13,0.01,2.70,0.00,17.83,24.77,27.03,6.17,32.46,1005.38,2046.76,2511.06,2632.92,2814.98,350.76,326.71,22.71,0000 0000 0000 0000 000000
2014-04-15 01:59:13,0.07,2.70,0.00,17.84,24.77,26.99,6.14,32.17,1005.39,2046.80,2511.01,2632.57,2814.91,350.28,326.36,22.71,0000 0000 0000 0000 000000
2014-04-15 02:00:14,0.16,2.71,0.00,17.84,24.77,27.04,6.11,32.29,1005.39,2046.74,2511.00,2632.35,2814.81,349.61,325.70,22.72,0000 0000 0000 0000 000000
2014-04-15 02:01:14,0.02,2.71,0.00,17.85,24.76,27.09,6.23,32.13,1005.39,2046.74,2510.94,2632.20,2814.66,350.39,326.42,22.72,0000 0000 0000 0000 000000
2014-04-15 02:02:14,0.09,2.71,0.00,17.87,24.76,27.02,6.10,32.17,1005.39,2046.76,2510.70,2632.09,2814.35,350.69,326.24,22.73,0000 0000 0000 0000 000000
2014-04-15 02:03:14,0.13,2.71,0.00,17.87,24.76,27.03,6.07,32.21,1005.39,2046.81,2510.46,2632.06,2814.16,349.55,325.78,22.73,0000 0000 0000 0000 000000
2014-04-15 02:04:14,0.14,2.71,0.00,17.88,24.75,27.09,6.15,32.21,1005.39,2046.74,2510.25,2632.02,2814.06,350.35,326.45,22.74,0000 0000 0000 0000 000000
2014-04-15 02:05:15,0.02,2.71,0.00,17.87,24.75,27.12,6.23,32.21,1005.39,2046.73,2510.10,2632.00,2814.02,351.55,327.61,22.75,0000 0000 0000 0000 000000
2014-04-15 02:06:15,0.02,2.71,0.00,17.87,24.75,27.15,6.18,32.25,1005.39,2046.70,2510.03,2632.00,2814.00,350.26,326.40,22.75,0000 0000 0000 0000 000000
2014-04-15 02:07:15,0.01,2.71,0.00,17.88,24.75,27.07,6.18,32.17,1005.39,2046.78,2510.00,2631.98,2814.00,350.27,326.47,22.76,0000 0000 0000 0000 000000
2014-04-15 02:08:15,0.05,2.71,0.00,17.88,24.75,27.12,6.07,32.04,1005.39,2046.74,2509.91,2631.95,2813.98,349.62,325.88,22.76,0000 0000 0000 0000 000000
2014-04-15 02:09:16,-0.00,2.71,0.00,17.88,24.75,27.12,6.13,32.21,1005.39,2046.81,2509.64,2631.92,2813.95,349.69,325.72,22.77,0000 0000 0000 0000 000000
2014-04-15 02:10:16,0.15,2.71,0.00,17.89,24.75,27.10,6.06,32.21,1005.39,2046.89,2509.52,2631.70,2813.66,349.63,325.67,22.78,0000 0000 0000 0000 000000
2014-04-15 02:11:16,0.20,2.71,0.00,17.90,24.75,27.16,5.93,32.17,1005.39,2046.76,2509.22,2631.31,2813.28,348.80,324.88,22.78,0000 0000 0000 0000 000000
2014-04-15 02:12:17,0.12,2.71,0.00,17.88,24.75,27.07,6.23,32.29,1005.39,2046.76,2509.08,2631.13,2813.10,350.31,326.31,22.79,0000 0000 0000 0000 000000
2014-04-15 02:13:17,0.10,2.71,0.00,17.86,24.75,26.97,6.14,32.17,1005.39,2046.82,2509.03,2631.06,2813.05,349.97,326.03,22.79,0000 0000 0000 0000 000000
2014-04-15 02:14:17,0.11,2.71,0.00,17.84,24.75,26.88,6.14,32.00,1005.39,2046.83,2508.98,2631.02,2813.01,349.57,325.67,22.80,0000 0000 0000 0000 000000
2014-04-15 02:15:17,-0.01,2.71,0.00,17.84,24.75,27.00,5.95,32.04,1005.39,2046.73,2508.86,2631.01,2813.00,349.00,325.14,22.81,0000 0000 0000 0000 000000
2014-04-15 02:16:18,-0.03,2.71,0.00,17.84,24.75,27.04,6.23,32.21,1005.39,2046.67,2508.43,2631.00,2812.98,350.69,326.71,22.81,0000 0000 0000 0000 000000
2014-04-15 02:17:18,0.01,2.71,0.00,17.85,24.75,26.93,6.09,32.00,1005.39,2046.60,2508.16,2630.96,2812.85,350.26,326.22,22.82,0000 0000 0000 0000 000000
2014-04-15 02:18:18,0.04,2.71,0.00,17.85,24.75,26.97,5.98,32.17,1005.39,2046.69,2508.07,2630.92,2812.68,349.34,325.44,22.82,0000 0000 0000 0000 000000
2014-04-15 02:19:19,0.18,2.71,0.00,17.88,24.75,27.01,6.10,32.00,1005.39,2046.75,2508.01,2630.64,2812.38,350.01,326.04,22.83,0000 0000 0000 0000 000000
2014-04-15 02:20:19,0.21,2.72,0.00,17.89,24.75,27.06,6.13,32.08,1005.39,2046.84,2507.95,2630.28,2812.17,350.88,326.84,22.83,0000 0000 0000 0000 000000
2014-04-15 02:21:19,0.22,2.72,0.00,17.89,24.75,26.99,6.07,32.21,1005.39,2046.88,2507.95,2630.14,2812.06,350.17,326.26,22.84,0000 0000 0000 0000 000000
2014-04-15 02:22:19,0.09,2.72,0.00,17.89,24.75,27.05,6.07,32.42,1005.39,2046.88,2507.67,2630.06,2812.02,349.33,325.39,22.85,0000 0000 0000 0000 000000
2014-04-15 02:23:19,0.07,2.72,0.00,17.89,24.75,26.99,5.98,32.08,1005.39,2046.82,2507.32,2630.02,2812.00,350.28,325.92,22.85,0000 0000 0000 0000 000000
2014-04-15 02:24:20,0.07,2.72,0.00,17.89,24.75,27.05,6.12,32.17,1005.39,2046.76,2507.12,2630.00,2811.97,350.24,326.01,22.86,0000 0000 0000 0000 000000
2014-04-15 02:25:20,-0.03,2.72,0.00,17.87,24.75,27.08,6.04,32.13,1005.39,2046.81,2507.04,2630.00,2811.97,350.09,326.12,22.86,0000 0000 0000 0000 000000
2014-04-15 02:26:20,0.05,2.72,0.00,17.87,24.75,27.11,6.02,32.04,1005.39,2046.83,2506.95,2629.96,2811.81,349.10,325.05,22.87,0000 0000 0000 0000 000000
2014-04-15 02:27:21,0.08,2.72,0.00,17.87,24.75,27.12,6.06,32.21,1005.40,2046.85,2506.86,2629.91,2811.44,349.61,326.07,22.88,0000 0000 0000 0000 000000
2014-04-15 02:28:21,0.13,2.72,0.00,17.87,24.75,27.03,6.06,32.25,1005.41,2046.89,2506.60,2629.72,2811.19,350.40,326.42,22.88,0000 0000 0000 0000 000000
2014-04-15 02:29:21,0.21,2.72,0.00,17.83,24.74,26.90,6.07,32.00,1005.52,2046.89,2506.36,2629.41,2811.06,349.47,325.63,22.89,0000 0000 0000 0000 000000
2014-04-15 02:30:22,0.15,2.72,0.00,17.80,24.74,26.84,6.11,32.33,1005.61,2046.94,2506.14,2629.17,2811.02,349.88,326.07,22.89,0000 0000 0000 0000 000000
2014-04-15 02:31:22,0.13,2.72,0.00,17.82,24.74,26.88,6.05,32.33,1005.74,2046.96,2506.07,2629.08,2811.00,349.82,326.08,22.90,0000 0000 0000 0000 000000
2014-04-15 02:32:22,0.06,2.72,0.00,17.82,24.73,26.92,5.98,32.38,1005.76,2046.94,2506.01,2629.03,2810.97,348.87,325.16,22.90,0000 0000 0000 0000 000000
2014-04-15 02:33:22,-0.00,2.72,0.00,17.84,24.73,26.95,6.21,32.21,1005.80,2046.90,2505.99,2629.00,2810.92,350.66,326.69,22.91,0000 0000 0000 0000 000000
2014-04-15 02:34:23,0.02,2.72,0.00,17.84,24.73,26.93,6.13,32.13,1005.86,2046.88,2505.83,2628.98,2810.70,350.33,326.65,22.92,0000 0000 0000 0000 000000
2014-04-15 02:35:23,0.09,2.72,0.00,17.87,24.73,26.89,5.98,32.38,1005.86,2046.91,2505.70,2628.99,2810.45,349.33,325.65,22.92,0000 0000 0000 0000 000000
2014-04-15 02:36:23,0.07,2.72,0.00,17.89,24.73,26.87,6.02,32.08,1005.87,2046.94,2505.39,2628.96,2810.24,349.49,325.31,22.93,0000 0000 0000 0000 000000